TimeCDT,TemperatureF,Dew PointF,Humidity,Sea Level PressureIn,VisibilityMPH,Wind Direction,Wind SpeedMPH,Gust SpeedMPH,PrecipitationIn,Events,Conditions,WindDirDegrees,DateUTC
12:53 AM,57.0,52.0,83,30.13,10.0,Calm,Calm,-,N/A,,Clear,0,2013-08-13 05:53:00
1:53 AM,53.1,51.1,93,30.15,10.0,North,3.5,-,N/A,,Clear,360,2013-08-13 06:53:00
2:53 AM,53.1,51.1,93,30.16,10.0,Calm,Calm,-,N/A,,Partly Cloudy,0,2013-08-13 07:53:00
3:53 AM,50.0,48.9,96,30.17,8.0,Calm,Calm,-,N/A,,Scattered Clouds,0,2013-08-13 08:53:00
4:25 AM,50.0,48.2,94,30.15,2.0,Calm,Calm,-,N/A,,Partly Cloudy,0,2013-08-13 09:25:00
4:53 AM,48.9,48.9,100,30.17,1.0,North,3.5,-,N/A,,Clear,360,2013-08-13 09:53:00
5:04 AM,50.0,48.2,94,30.14,3.0,Calm,Calm,-,N/A,,Clear,0,2013-08-13 10:04:00
5:41 AM,46.4,46.4,100,30.14,1.8,Calm,Calm,-,N/A,,Clear,0,2013-08-13 10:41:00
5:53 AM,48.0,48.0,100,30.17,1.2,Calm,Calm,-,N/A,,Clear,0,2013-08-13 10:53:00
6:09 AM,46.4,46.4,100,30.15,0.2,Calm,Calm,-,N/A,Fog,Fog,0,2013-08-13 11:09:00
6:34 AM,46.4,46.4,100,30.16,1.2,North,3.5,-,N/A,,Clear,350,2013-08-13 11:34:00
6:37 AM,46.4,46.4,100,30.16,3.0,North,3.5,-,N/A,,Clear,360,2013-08-13 11:37:00
6:53 AM,46.9,46.0,97,30.19,10.0,Calm,Calm,-,N/A,,Clear,0,2013-08-13 11:53:00
7:53 AM,55.0,52.0,89,30.21,10.0,Calm,Calm,-,N/A,,Clear,0,2013-08-13 12:53:00
8:53 AM,61.0,52.0,72,30.23,8.0,Calm,Calm,-,N/A,,Clear,0,2013-08-13 13:53:00
9:53 AM,66.0,52.0,60,30.24,10.0,Calm,Calm,-,N/A,,Clear,0,2013-08-13 14:53:00
10:53 AM,70.0,48.0,46,30.23,9.0,NE,4.6,-,N/A,,Partly Cloudy,40,2013-08-13 15:53:00
11:53 AM,72.0,44.1,37,30.23,10.0,NNW,11.5,17.3,N/A,,Scattered Clouds,330,2013-08-13 16:53:00
12:53 PM,73.0,44.1,35,30.23,10.0,Variable,3.5,-,N/A,,Partly Cloudy,0,2013-08-13 17:53:00
1:53 PM,73.9,43.0,33,30.22,10.0,North,9.2,-,N/A,,Scattered Clouds,360,2013-08-13 18:53:00
2:53 PM,73.0,41.0,31,30.21,10.0,North,5.8,-,N/A,,Scattered Clouds,10,2013-08-13 19:53:00
3:53 PM,72.0,41.0,33,30.20,10.0,NW,5.8,-,N/A,,Partly Cloudy,320,2013-08-13 20:53:00
4:53 PM,75.0,41.0,29,30.19,10.0,North,5.8,-,N/A,,Scattered Clouds,350,2013-08-13 21:53:00
5:53 PM,75.0,42.1,31,30.17,10.0,North,8.1,-,N/A,,Partly Cloudy,360,2013-08-13 22:53:00
6:53 PM,73.0,43.0,34,30.17,10.0,NNW,4.6,-,N/A,,Clear,330,2013-08-13 23:53:00
7:53 PM,69.1,46.9,45,30.17,10.0,NE,3.5,-,N/A,,Clear,40,2013-08-14 00:53:00
8:53 PM,60.1,50.0,69,30.18,10.0,Calm,Calm,-,N/A,,Clear,0,2013-08-14 01:53:00
9:53 PM,55.0,48.9,80,30.19,10.0,Calm,Calm,-,N/A,,Clear,0,2013-08-14 02:53:00
10:53 PM,54.0,50.0,86,30.20,10.0,Calm,Calm,-,N/A,,Mostly Cloudy,0,2013-08-14 03:53:00
11:53 PM,52.0,48.9,89,30.21,10.0,Calm,Calm,-,N/A,,Clear,0,2013-08-14 04:53:00